Mitchell, SD

6:47 PM CDT on October 14, 2019 (GMT -0500)
Mitchell Municipal

Weather History for KMHE - August, 2019

Change the Weather History Date:

Monday, August 26, 2019

  Actual Average Record
Temperature  
Mean Temperature 70 °F 70 °F  
Max Temperature 79 °F 82 °F 105 °F (1991)
Min Temperature 60 °F 59 °F 39 °F (1910)
Degree Days  
Heating Degree Days 0 1  
Month to date heating degree days 0 1  
Since 1 June heating degree days 16 41  
Since 1 July heating degree days 0 6  
Cooling Degree Days 5 6  
Month to date cooling degree days 210 201  
Year to date cooling degree days 790 719  
Since 1 June cooling degree days 771 679  
Growing Degree Days 20 (Base 50)    
Moisture  
Dew Point 61 °F    
Average Humidity 72    
Maximum Humidity 93    
Minimum Humidity 50    
Precipitation  
Precipitation 1.35 in 0.07 in 1.66 in (1944)
Month to date precipitation 3.49 2.02  
Year to date precipitation 24.41 15.99  
Snow  
Snow 0.00 in - 0.00 in ()
Month to date snowfall 0.0  
Since 1 June snowfall 0.0  
Since 1 July snowfall 0.0  
Snow Depth 0.00 in    
Sea Level Pressure  
Sea Level Pressure 29.80 in    
Wind  
Wind Speed 11 mph (NNW)    
Max Wind Speed 20 mph    
Max Gust Speed 31 mph    
Visibility 8 miles    
Events Rain , Thunderstorm    
T = Trace of Precipitation, MM = Missing Value Source: NWS Daily Summary

Daily Weather History Graph

Daily Weather History Graph

Search for Another Location

Airport or City:

Astronomy

Aug. 26, 2019 Rise Set
Actual Time 6:48 AM CDT 8:18 PM CDT
Civil Twilight 6:18 AM CDT 8:48 PM CDT
Nautical Twilight 5:42 AM CDT 9:24 PM CDT
Astronomical Twilight 5:03 AM CDT 10:03 PM CDT
Moon 2:08 AM CDT (8/26) 5:50 PM CDT (8/26)
Length of Visible Light 14h 29m
Length of Day
13h 29m
Waning Crescent, 19% of the Moon is Illuminated
Aug 26
Waning Crescent
Aug 30
New
Sep 5
First Quarter
Sep 13
Full
Sep 21
Last Quarter

Hourly Weather History & Observations

Time (CDT) Temp. Dew Point Humidity Pressure Visibility Wind Dir Wind Speed Gust Speed Precip Events Conditions
12:53 AM 68.0 °F 64.0 °F 87% 29.75 in 10.0 mi SSE 11.5 mph 23.0 mph N/A   Partly Cloudy
1:22 AM 69.1 °F 64.0 °F 84% 29.78 in 10.0 mi South 6.9 mph - N/A   Mostly Cloudy
1:53 AM 69.1 °F 64.0 °F 84% 29.78 in 10.0 mi South 6.9 mph - N/A   Overcast
2:17 AM 68.0 °F 64.0 °F 87% 29.78 in 9.0 mi SSE 8.1 mph - N/A Thunderstorm Overcast
2:40 AM 68.0 °F 64.0 °F 87% 29.77 in 8.0 mi SSE 11.5 mph - 0.00 in Rain , Thunderstorm Light Thunderstorms and Rain
2:53 AM 68.0 °F 64.0 °F 87% 29.75 in 8.0 mi SE 6.9 mph - 0.00 in Thunderstorm Overcast
3:11 AM 68.0 °F 64.0 °F 87% 29.77 in 7.0 mi NE 12.7 mph - N/A   Overcast
3:19 AM 66.9 °F 63.0 °F 87% 29.77 in 10.0 mi ENE 9.2 mph - N/A Thunderstorm Overcast
3:42 AM 68.0 °F 64.0 °F 87% 29.79 in 10.0 mi NE 6.9 mph - 0.01 in Rain , Thunderstorm Light Thunderstorms and Rain
3:51 AM 68.0 °F 64.4 °F 88% 29.80 in 1.5 mi NNW 10.4 mph 16.1 mph 0.22 in Rain , Thunderstorm Heavy Thunderstorms and Rain
3:53 AM 66.9 °F 64.0 °F 90% 29.77 in 1.0 mi North 11.5 mph 16.1 mph 0.31 in Rain , Thunderstorm Heavy Thunderstorms and Rain
4:01 AM 66.9 °F 64.0 °F 90% 29.78 in 0.8 mi NE 6.9 mph - 0.23 in Rain , Thunderstorm Heavy Thunderstorms and Rain
4:09 AM 66.9 °F 64.9 °F 93% 29.80 in 1.2 mi NNW 3.5 mph - 0.33 in Rain , Thunderstorm Heavy Thunderstorms and Rain
4:29 AM 66.9 °F 64.0 °F 90% 29.79 in 1.0 mi North 4.6 mph - 0.78 in Rain , Thunderstorm Heavy Thunderstorms and Rain
4:45 AM 66.0 °F 64.0 °F 93% 29.78 in 2.5 mi North 3.5 mph - 0.88 in Rain , Thunderstorm Rain
4:47 AM 66.2 °F 64.4 °F 94% 29.79 in 3.0 mi North - - 0.88 in Rain , Thunderstorm Rain
4:53 AM 64.9 °F 63.0 °F 93% 29.77 in 4.0 mi NNW 9.2 mph 17.3 mph 0.89 in Rain , Thunderstorm Light Rain
5:03 AM 64.9 °F 62.1 °F 90% 29.78 in 5.0 mi North 4.6 mph - 0.04 in Rain , Thunderstorm Rain
5:08 AM 64.9 °F 62.1 °F 90% 29.77 in 5.0 mi NNE 5.8 mph - 0.06 in Rain Rain
5:53 AM 66.0 °F 64.0 °F 93% 29.74 in 10.0 mi ENE 12.7 mph - 0.12 in Rain Light Rain
6:53 AM 64.0 °F 60.1 °F 87% 29.74 in 8.0 mi East 9.2 mph - 0.02 in Rain Light Rain
7:53 AM 64.9 °F 61.0 °F 87% 29.74 in 10.0 mi Calm Calm - 0.00 in   Scattered Clouds
8:53 AM 66.9 °F 62.1 °F 84% 29.81 in 10.0 mi WNW 10.4 mph - N/A   Mostly Cloudy
9:53 AM 71.1 °F 63.0 °F 75% 29.80 in 10.0 mi West 6.9 mph - N/A   Scattered Clouds
10:53 AM 73.0 °F 63.0 °F 71% 29.80 in 10.0 mi West 11.5 mph - N/A   Clear
11:53 AM 75.0 °F 64.0 °F 69% 29.80 in 10.0 mi NW 12.7 mph - N/A   Scattered Clouds
12:53 PM 77.0 °F 61.0 °F 58% 29.80 in 10.0 mi NNW 11.5 mph 21.9 mph N/A   Clear
1:53 PM 78.1 °F 60.1 °F 54% 29.80 in 10.0 mi NW 16.1 mph - N/A   Partly Cloudy
2:53 PM 77.0 °F 59.0 °F 54% 29.80 in 10.0 mi NW 15.0 mph 23.0 mph N/A   Mostly Cloudy
3:53 PM 73.9 °F 57.9 °F 57% 29.81 in 10.0 mi NW 12.7 mph 23.0 mph N/A   Overcast
4:53 PM 77.0 °F 57.0 °F 50% 29.79 in 10.0 mi NW 15.0 mph 21.9 mph N/A   Partly Cloudy
5:53 PM 75.0 °F 57.0 °F 53% 29.80 in 10.0 mi WNW 11.5 mph - N/A   Mostly Cloudy
6:53 PM 75.0 °F 55.9 °F 51% 29.82 in 10.0 mi WNW 16.1 mph 24.2 mph N/A   Clear
7:53 PM 66.9 °F 57.0 °F 70% 29.85 in 10.0 mi NNW 9.2 mph - 0.01 in   Overcast
8:53 PM 64.9 °F 57.0 °F 75% 29.87 in 10.0 mi WNW 8.1 mph - N/A   Mostly Cloudy
9:53 PM 63.0 °F 54.0 °F 72% 29.90 in 10.0 mi WNW 9.2 mph - N/A   Clear
10:53 PM 63.0 °F 54.0 °F 72% 29.90 in 10.0 mi West 9.2 mph - 0.00 in Rain Light Rain
11:53 PM 63.0 °F 52.0 °F 67% 29.90 in 10.0 mi West 11.5 mph - 0.00 in   Clear